Regional Weather Roundup
Issued by NWS State College, PA

Home | Current Version | Previous Version | Graphics & Text | Print | Product List | Glossary Off
Versions: 1 2 3 4 5 6 7 8 9 10 11 12 13 14 15 16 17 18 19 20 21 22 23 24 25 26 27 28 29 30 31 32 33 34 35 36 37 38 39 40 41 42 43 44 45 46 47 48 49 50

248
ASUS41 KCTP 231703
RWRCTP

REGIONAL WEATHER ROUNDUP
NATIONAL WEATHER SERVICE STATE COLLEGE PA
1200 PM EST FRI FEB 23 2018

Note: "fair" indicates few or no clouds below 12,000 feet with no
significant weather and/or obstructions to visibility.

* = STATION THAT DOES NOT REPORT PRECIPITATION /E.G. RAIN...SNOW...ETC/
    THUNDER OR FOG.

PAZ002>004-007>009-013>016-020>023-029>032-231800-
WESTERN PENNSYLVANIA

CITY           SKY/WX    TMP DP  RH WIND       PRES   REMARKS
ERIE           CLOUDY    51  46  83 S23G31    30.09F
MEADVILLE      CLOUDY    44  44 100 VRB6      30.16F
FRANKLIN*      LGT RAIN  43  43 100 SE10      30.19F FOG
NEW CASTLE     LGT RAIN  49  49 100 VRB6      30.19F
BEAVER COUNTY  RAIN      46  46 100 SE8       30.21F
BUTLER*        LGT RAIN  47  46  97 S8        30.21F
PITTSBURGH INT LGT RAIN  49  49 100 CALM      30.21F FOG
PITTSBURGH     LGT RAIN  51  48  89 CALM      30.21F FOG
INDIANA*       CLOUDY    46  45  93 SE7G15    30.28F FOG
LATROBE        LGT RAIN  55  50  82 S7        30.23F FOG
WASHINGTON CO* LGT RAIN  57  55  93 S8        30.25S
$$

PAZ004>006-010>012-017>019-024>028-033>037-041-042-045-046-049>053-231800-
CENTRAL PENNSYLVANIA

CITY           SKY/WX    TMP DP  RH WIND       PRES   REMARKS
BRADFORD       LGT RAIN  37  36  96 SE13      30.24S
DUBOIS         RAIN      39  37  92 SE16      30.24F VSB 1
CLEARFIELD     LGT RAIN  38  37  97 SE5       30.33F FOG
JOHNSTOWN      FOG       40  38  93 S12       30.28F VSB 1/2
ALTOONA        CLOUDY    38  37  97 S13       30.39F FOG
STATE COLLEGE  LGT RAIN  37  36  93 S6        30.39F
WILLIAMSPORT   LGT RAIN  38  36  92 E10G23    30.43F FOG
SELINSGROVE    CLOUDY    39  35  86 S12       30.47F
FT INDIANTOWN  DRIZZLE   38  38 100 SE5       30.50F FOG
CAPITAL CITY   CLOUDY    41  38  89 SE8       30.50F FOG
HARRISBURG     CLOUDY    40  37  89 SE8       30.50F FOG
YORK           CLOUDY    40  40 100 SE7       30.50F
$$

PAZ038>040-043-044-047-048-054-055-060>062-067>071-231800-
EASTERN PENNSYLVANIA

CITY           SKY/WX    TMP DP  RH WIND       PRES   REMARKS
SCRANTON       CLOUDY    37  33  85 S8        30.45F
MOUNT POCONO   FOG       30  30 100 SE13G18   30.43F VSB 1/4
ALLENTOWN      CLOUDY    38  34  85 E6        30.52F FOG
QUAKERTOWN*    CLOUDY    37  37 100 E10G16    30.50F FOG
READING        CLOUDY    39  39 100 VRB7      30.50F
LANCASTER      CLOUDY    39  38  96 SE7       30.53R FOG
COATESVILLE    MIX PCPN  37  37 100 SE7       30.50F VSB 1
POTTSTOWN      CLOUDY    37  37 100 VRB6      30.52F FOG
BLUE BELL      CLOUDY    37  37 100 E8        30.52F
DOYLESTOWN     CLOUDY    37  36  96 CALM      30.51F
WILLOW GROVE   NOT AVBL
NORTH PHILA    CLOUDY    41  37  86 E8        30.55F
PHILADELPHIA   DRIZZLE   41  39  93 E9        30.53F FOG
$$




USA.gov is the U.S. government's official web portal to all federal, state and local government web resources and services.